When you browse on this site, cookies collect data to enhance your experience and personalize the content and advertising you see.
Visit our Privacy Policy to learn more. By continuing to use the site, you agree to this use of cookies and data.
  • En España
  • Lista de países
  • Para 7 días
  • Temperatura del agua
  • Mapa Satelital
  • El tiempo en el mapa
  • Informadores
  • user-avatar
    Iniciar sesión

    Tiempo cada hora Brikama

    Hoy, 22 Enero, Martes

    Tiempo Temperatura Precipitaciones Viento Presión Humedad
    00:00 +25°C° 0 mm 5 mps 759 mmHg 24%
    01:00 +23°C° 0 mm 5 mps 758 mmHg 21%
    02:00 +23°C° 0 mm 5 mps 758 mmHg 17%
    03:00 +23°C° 0 mm 6 mps 758 mmHg 16%
    04:00 +22°C° 0 mm 6 mps 758 mmHg 16%
    05:00 +22°C° 0 mm 6 mps 758 mmHg 15%
    06:00 +22°C° 0 mm 6 mps 758 mmHg 15%
    07:00 +23°C° 0 mm 7 mps 759 mmHg 14%
    08:00 +23°C° 0 mm 7 mps 759 mmHg 14%
    09:00 +26°C° 0 mm 7 mps 759 mmHg 13%
    10:00 +28°C° 0 mm 7 mps 759 mmHg 11%
    11:00 +32°C° 0 mm 6 mps 759 mmHg 10%
    12:00 +33°C° 0 mm 6 mps 758 mmHg 9%
    13:00 +34°C° 0 mm 5 mps 757 mmHg 8%
    14:00 +36°C° 0 mm 4 mps 757 mmHg 8%
    15:00 +35°C° 0 mm 4 mps 757 mmHg 11%
    16:00 +34°C° 0 mm 4 mps 756 mmHg 14%
    17:00 +33°C° 0 mm 4 mps 756 mmHg 17%
    18:00 +30°C° 0 mm 4 mps 757 mmHg 27%
    19:00 +28°C° 0 mm 4 mps 757 mmHg 37%
    20:00 +26°C° 0 mm 4 mps 757 mmHg 48%
    21:00 +26°C° 0 mm 4 mps 758 mmHg 41%
    22:00 +27°C° 0 mm 4 mps 758 mmHg 34%
    23:00 +27°C° 0 mm 4 mps 758 mmHg 26%

    Mañana, 23 Enero, Miércoles

    Tiempo Temperatura Precipitaciones Viento Presión Humedad
    00:00 +26°C° 0 mm 4 mps 758 mmHg 25%
    01:00 +26°C° 0 mm 4 mps 758 mmHg 23%
    02:00 +25°C° 0 mm 4 mps 758 mmHg 21%
    03:00 +25°C° 0 mm 5 mps 757 mmHg 22%
    04:00 +23°C° 0 mm 5 mps 757 mmHg 23%
    05:00 +23°C° 0 mm 6 mps 757 mmHg 24%
    06:00 +23°C° 0 mm 6 mps 758 mmHg 24%
    07:00 +23°C° 0 mm 6 mps 758 mmHg 25%
    08:00 +24°C° 0 mm 7 mps 758 mmHg 25%
    09:00 +27°C° 0 mm 6 mps 758 mmHg 22%
    10:00 +30°C° 0 mm 6 mps 758 mmHg 18%
    11:00 +33°C° 0 mm 5 mps 758 mmHg 15%
    12:00 +34°C° 0 mm 5 mps 757 mmHg 14%
    13:00 +35°C° 0 mm 4 mps 757 mmHg 13%
    14:00 +36°C° 0 mm 4 mps 756 mmHg 12%
    15:00 +35°C° 0 mm 4 mps 756 mmHg 15%
    16:00 +34°C° 0 mm 5 mps 756 mmHg 19%
    17:00 +33°C° 0 mm 5 mps 756 mmHg 22%
    18:00 +30°C° 0 mm 5 mps 756 mmHg 31%
    19:00 +28°C° 0 mm 5 mps 757 mmHg 39%
    20:00 +27°C° 0 mm 5 mps 757 mmHg 47%
    21:00 +27°C° 0 mm 5 mps 757 mmHg 45%
    22:00 +26°C° 0 mm 5 mps 757 mmHg 43%
    23:00 +26°C° 0 mm 5 mps 757 mmHg 41%

    Pasado mañana, 24 Enero, Jueves

    Tiempo Temperatura Precipitaciones Viento Presión Humedad
    00:00 +26°C° 0 mm 5 mps 757 mmHg 42%
    01:00 +25°C° 0 mm 5 mps 757 mmHg 43%
    02:00 +23°C° 0 mm 5 mps 756 mmHg 44%
    03:00 +23°C° 0 mm 5 mps 756 mmHg 44%
    04:00 +23°C° 0 mm 5 mps 756 mmHg 44%
    05:00 +23°C° 0 mm 4 mps 756 mmHg 44%
    06:00 +23°C° 0 mm 5 mps 756 mmHg 40%
    07:00 +25°C° 0 mm 5 mps 757 mmHg 36%
    08:00 +25°C° 0 mm 5 mps 757 mmHg 33%
    09:00 +27°C° 0 mm 5 mps 757 mmHg 27%
    10:00 +29°C° 0 mm 5 mps 757 mmHg 22%
    11:00 +32°C° 0 mm 5 mps 757 mmHg 17%
    12:00 +33°C° 0 mm 4 mps 757 mmHg 16%
    13:00 +34°C° 0 mm 4 mps 756 mmHg 16%
    14:00 +35°C° 0 mm 4 mps 755 mmHg 15%
    15:00 +34°C° 0 mm 5 mps 755 mmHg 22%
    16:00 +33°C° 0 mm 5 mps 755 mmHg 28%
    17:00 +30°C° 0 mm 6 mps 754 mmHg 35%
    18:00 +29°C° 0 mm 6 mps 755 mmHg 40%
    19:00 +28°C° 0 mm 6 mps 756 mmHg 46%
    20:00 +27°C° 0 mm 6 mps 756 mmHg 51%
    21:00 +26°C° 0 mm 6 mps 757 mmHg 50%
    22:00 +26°C° 0 mm 5 mps 757 mmHg 49%
    23:00 +25°C° 0 mm 5 mps 757 mmHg 48%

    25 Enero, Viernes

    Tiempo Temperatura Precipitaciones Viento Presión Humedad
    00:00 +25°C° 0 mm 5 mps 757 mmHg 48%
    01:00 +25°C° 0 mm 5 mps 756 mmHg 47%
    02:00 +23°C° 0 mm 5 mps 756 mmHg 47%
    03:00 +23°C° 0 mm 5 mps 756 mmHg 48%
    04:00 +22°C° 0 mm 5 mps 756 mmHg 48%
    05:00 +22°C° 0 mm 5 mps 756 mmHg 49%
    06:00 +22°C° 0 mm 5 mps 757 mmHg 48%
    07:00 +23°C° 0 mm 5 mps 757 mmHg 47%
    08:00 +23°C° 0 mm 5 mps 758 mmHg 46%
    09:00 +26°C° 0 mm 5 mps 758 mmHg 40%
    10:00 +28°C° 0 mm 5 mps 758 mmHg 33%
    11:00 +30°C° 0 mm 4 mps 758 mmHg 27%
    12:00 +32°C° 0 mm 4 mps 757 mmHg 25%
    13:00 +33°C° 0 mm 5 mps 756 mmHg 24%
    14:00 +34°C° 0 mm 5 mps 756 mmHg 23%
    15:00 +32°C° 0 mm 5 mps 755 mmHg 29%
    16:00 +30°C° 0 mm 5 mps 755 mmHg 34%
    17:00 +29°C° 0 mm 6 mps 755 mmHg 40%
    18:00 +27°C° 0 mm 6 mps 756 mmHg 46%
    19:00 +26°C° 0 mm 6 mps 756 mmHg 52%
    20:00 +25°C° 0 mm 5 mps 757 mmHg 57%
    21:00 +25°C° 0 mm 5 mps 757 mmHg 57%
    22:00 +25°C° 0 mm 5 mps 757 mmHg 57%
    23:00 +25°C° 0 mm 5 mps 758 mmHg 56%

    26 Enero, Sábado

    Tiempo Temperatura Precipitaciones Viento Presión Humedad
    00:00 +23°C° 0 mm 5 mps 757 mmHg 55%
    01:00 +23°C° 0 mm 5 mps 757 mmHg 53%
    02:00 +23°C° 0 mm 5 mps 757 mmHg 52%
    03:00 +22°C° 0 mm 5 mps 757 mmHg 51%
    04:00 +22°C° 0 mm 5 mps 757 mmHg 50%
    05:00 +22°C° 0 mm 5 mps 757 mmHg 49%
    06:00 +22°C° 0 mm 5 mps 757 mmHg 47%
    07:00 +23°C° 0 mm 5 mps 758 mmHg 45%
    08:00 +23°C° 0 mm 5 mps 758 mmHg 43%
    09:00 +26°C° 0 mm 5 mps 758 mmHg 36%
    10:00 +28°C° 0 mm 5 mps 759 mmHg 30%
    11:00 +30°C° 0 mm 5 mps 759 mmHg 23%
    12:00 +32°C° 0 mm 5 mps 758 mmHg 22%
    13:00 +33°C° 0 mm 4 mps 757 mmHg 20%
    14:00 +34°C° 0 mm 4 mps 756 mmHg 18%
    15:00 +33°C° 0 mm 5 mps 756 mmHg 25%
    16:00 +32°C° 0 mm 5 mps 756 mmHg 31%
    17:00 +30°C° 0 mm 5 mps 756 mmHg 37%
    18:00 +29°C° 0 mm 5 mps 756 mmHg 42%
    19:00 +27°C° 0 mm 6 mps 757 mmHg 47%
    20:00 +26°C° 0 mm 6 mps 757 mmHg 52%
    21:00 +26°C° 0 mm 6 mps 757 mmHg 48%
    22:00 +26°C° 0 mm 6 mps 757 mmHg 43%
    23:00 +26°C° 0 mm 5 mps 757 mmHg 38%

    27 Enero, Domingo

    Tiempo Temperatura Precipitaciones Viento Presión Humedad
    00:00 +25°C° 0 mm 5 mps 757 mmHg 38%
    01:00 +25°C° 0 mm 5 mps 757 mmHg 38%
    02:00 +25°C° 0 mm 5 mps 756 mmHg 37%
    03:00 +23°C° 0 mm 5 mps 756 mmHg 33%
    04:00 +23°C° 0 mm 5 mps 757 mmHg 29%
    05:00 +23°C° 0 mm 6 mps 757 mmHg 24%
    06:00 +23°C° 0 mm 6 mps 757 mmHg 23%
    07:00 +24°C° 0 mm 6 mps 758 mmHg 21%
    08:00 +24°C° 0 mm 7 mps 758 mmHg 20%
    09:00 +27°C° 0 mm 7 mps 758 mmHg 17%
    10:00 +29°C° 0 mm 6 mps 758 mmHg 15%
    11:00 +32°C° 0 mm 6 mps 758 mmHg 13%
    12:00 +33°C° 0 mm 6 mps 757 mmHg 12%
    13:00 +35°C° 0 mm 5 mps 756 mmHg 11%
    14:00 +36°C° 0 mm 5 mps 756 mmHg 11%
    15:00 +35°C° 0 mm 5 mps 756 mmHg 13%
    16:00 +34°C° 0 mm 5 mps 755 mmHg 16%
    17:00 +33°C° 0 mm 5 mps 755 mmHg 19%
    18:00 +30°C° 0 mm 5 mps 756 mmHg 23%
    19:00 +29°C° 0 mm 5 mps 756 mmHg 28%
    20:00 +28°C° 0 mm 5 mps 757 mmHg 32%
    21:00 +27°C° 0 mm 5 mps 757 mmHg 32%
    22:00 +26°C° 0 mm 5 mps 757 mmHg 32%
    23:00 +26°C° 0 mm 5 mps 757 mmHg 32%
    Mostrar más